This is the latest recevied weather packets stored in our database for station/object K4CRS-13. If no packets are shown the sender has not sent any weather packets the latest 10 day(s).
| Time | Temp. | Humidity | Pressure | Rain* | Wind** | Luminosity | Snow |
|---|---|---|---|---|---|---|---|
| 1777997857 | 23.33° C | 59% | 1049.1 hPa | 0 mm | - | 399 W/m² | - |
| 1777997556 | 23.33° C | 61% | 1049 hPa | 0 mm | - | 428 W/m² | - |
| 1777997253 | 22.78° C | 60% | 1048.9 hPa | 0 mm | - | 578 W/m² | - |
| 1777996950 | 23.33° C | 58% | 1048.6 hPa | 0 mm | - | 574 W/m² | - |
| 1777996647 | 23.33° C | 59% | 1048.8 hPa | 0 mm | - | 704 W/m² | - |
| 1777996343 | 22.78° C | 61% | 1048.9 hPa | 0 mm | - | 748 W/m² | - |
| 1777996039 | 23.33° C | 61% | 1049 hPa | 0 mm | - | 466 W/m² | - |
| 1777995735 | 22.78° C | 61% | 1048.7 hPa | 0 mm | - | 730 W/m² | - |
| 1777995432 | 22.78° C | 61% | 1048.8 hPa | 0 mm | - | 614 W/m² | - |
| 1777995129 | 22.78° C | 64% | 1048.4 hPa | 0 mm | - | 727 W/m² | - |
| 1777994826 | 22.22° C | 63% | 1048.6 hPa | 0 mm | - | 708 W/m² | - |
| 1777994522 | 22.22° C | 63% | 1048.7 hPa | 0 mm | - | 691 W/m² | - |
| 1777994217 | 21.67° C | 65% | 1048.7 hPa | 0 mm | - | 670 W/m² | - |
| 1777993915 | 21.67° C | 67% | 1048.7 hPa | 0 mm | - | 650 W/m² | - |
| 1777993611 | 22.22° C | 65% | 1048.9 hPa | 0 mm | - | 641 W/m² | - |
| 1777993309 | 21.67° C | 65% | 1049 hPa | 0 mm | - | 642 W/m² | - |
| 1777993009 | 22.22° C | 66% | 1048.9 hPa | 0 mm | - | 626 W/m² | - |
| 1777992708 | 21.67° C | 67% | 1048.9 hPa | 0 mm | - | 612 W/m² | - |
| 1777992405 | 21.67° C | 66% | 1049 hPa | 0 mm | - | 595 W/m² | - |
| 1777992103 | 21.11° C | 68% | 1048.9 hPa | 0 mm | - | 582 W/m² | - |
| 1777991800 | 20.56° C | 69% | 1048.8 hPa | 0 mm | - | 558 W/m² | - |
| 1777991497 | 20.56° C | 68% | 1048.7 hPa | 0 mm | - | 540 W/m² | - |
| 1777991194 | 20.56° C | 67% | 1048.6 hPa | 0 mm | - | 547 W/m² | - |
| 1777990892 | 20.56° C | 69% | 1048.8 hPa | 0 mm | - | 515 W/m² | - |
| 1777990589 | 20.56° C | 69% | 1048.6 hPa | 0 mm | - | 489 W/m² | - |
* Rain latest hour (hover to see other rain measurements)
** Current wind speed in m/s (hover to see current wind gust speed)